User: anonymous   Login
Location: Unspecified
(0.0000°N, 0.0000°E)
Time: 01:04:53
(UTC+00:00)
Language:

TECHNOSAT - Orbit

View from above orbital plane
View from above orbital plane
View from above satellite
View from above satellite

Ground track
Ground track

The orbit data is extracted from the following two-line orbital elements,

1 42829U 17042E   21023.65326625  .00000242  00000-0  29661-4 0  9998
2 42829  97.4903 260.6836 0012653 271.1020  88.8749 14.91206405192109
Epoch (UTC): 23 January 2021 15:40:42
Eccentricity: 0.0012653
inclination: 97.4903°
perigee height: 585 km
apogee height: 603 km
right ascension of ascending node: 260.6836°
argument of perigee: 271.1020°
revolutions per day: 14.91206405
mean anomaly at epoch: 88.8749°
orbit number at epoch: 19210

The dashed part of the orbit path shows where the satellite is in the earth's shadow,  

DLR